Location: Bidart
(43.4376°N, 1.5913°W)
Time: 05:49:04
(UTC+00:00)

Cosmos 2278 - Pass Details

Date: 19 May 2025
Orbit: 839 x 850 km, 71.1° (Epoch: 18 June)

Event Time Altitude Azimuth Distance (km) Brightness Sun altitude
Rises 23:07:36 0° 337° (NNW) 3,402 8.2 -25.3°
Reaches altitude 10° 23:10:06 10° 341° (NNW) 2,464 7.2 -25.4°
Maximum altitude 23:15:42 62° 62° (ENE) 942 3.9 -25.7°
Enters shadow 23:16:36 54° 104° (ESE) 1,012 3.9 -25.7°
